Year,Month,Day,Hour,Minute,Value (Times are PST for windspeed in km/hr)
2006,12,13,01,24,8.40
2006,12,13,01,25,9.90
2006,12,13,01,26,15.50
2006,12,13,01,27,7.50
2006,12,13,01,28,5.60
2006,12,13,01,29,11.60
2006,12,13,01,30,6.60
2006,12,13,01,31,8.50
2006,12,13,01,32,8.80
2006,12,13,01,33,17.10
2006,12,13,01,34,7.30
2006,12,13,01,35,7.80
2006,12,13,01,36,10.00
2006,12,13,01,37,6.70
2006,12,13,01,38,4.70
2006,12,13,01,39,10.70
2006,12,13,01,40,8.30
2006,12,13,01,41,11.70
2006,12,13,01,42,7.50
2006,12,13,01,43,8.70
2006,12,13,01,44,6.50
2006,12,13,01,45,3.40
2006,12,13,01,46,8.00
2006,12,13,01,47,6.40
2006,12,13,01,48,6.90
2006,12,13,01,49,6.80
2006,12,13,01,50,6.90
2006,12,13,01,51,7.70
2006,12,13,01,52,9.70
2006,12,13,01,53,7.10
2006,12,13,01,54,4.60
2006,12,13,01,55,12.10
2006,12,13,01,56,8.70
2006,12,13,01,57,23.00
2006,12,13,01,58,13.80
2006,12,13,01,59,8.40
2006,12,13,02,00,7.60
2006,12,13,02,01,2.60
2006,12,13,02,02,9.50
2006,12,13,02,03,8.90
2006,12,13,02,04,7.50
2006,12,13,02,05,8.00
2006,12,13,02,06,3.00
2006,12,13,02,07,1.50
2006,12,13,02,08,1.20
2006,12,13,02,09,4.60
2006,12,13,02,10,6.40
2006,12,13,02,11,3.90
2006,12,13,02,12,7.50
2006,12,13,02,13,3.90
2006,12,13,02,14,4.40
2006,12,13,02,15,3.30
2006,12,13,02,16,3.40
2006,12,13,02,17,4.70
2006,12,13,02,18,4.00
2006,12,13,02,19,2.30
2006,12,13,02,20,3.70
2006,12,13,02,21,8.10
2006,12,13,02,22,5.40
2006,12,13,02,23,3.50
2006,12,13,02,24,5.70
2006,12,13,02,25,4.70
2006,12,13,02,26,6.80
2006,12,13,02,27,3.70
2006,12,13,02,28,4.20
2006,12,13,02,29,2.70
2006,12,13,02,30,5.20
2006,12,13,02,31,4.60
2006,12,13,02,32,3.70
2006,12,13,02,33,1.10
2006,12,13,02,34,0.70
2006,12,13,02,35,0.80
2006,12,13,02,36,1.40
2006,12,13,02,37,0.00
2006,12,13,02,38,1.40
2006,12,13,02,39,1.30
2006,12,13,02,40,1.40
2006,12,13,02,41,0.00
2006,12,13,02,42,2.60
2006,12,13,02,43,0.90
2006,12,13,02,44,0.10
2006,12,13,02,45,1.90
2006,12,13,02,46,5.70
2006,12,13,02,47,6.30
2006,12,13,02,48,5.60
2006,12,13,02,49,4.90
2006,12,13,02,50,5.20
2006,12,13,02,51,6.00
2006,12,13,02,52,6.40
2006,12,13,02,53,5.30
2006,12,13,02,54,8.10
2006,12,13,02,55,6.90
2006,12,13,02,56,5.10
2006,12,13,02,57,5.10
2006,12,13,02,58,3.40
2006,12,13,02,59,10.50
2006,12,13,03,00,9.70
2006,12,13,03,01,7.50
2006,12,13,03,02,4.30
2006,12,13,03,03,7.20
2006,12,13,03,04,4.70
2006,12,13,03,05,5.60
2006,12,13,03,06,9.70
2006,12,13,03,07,10.50
2006,12,13,03,08,5.10
2006,12,13,03,09,3.20
2006,12,13,03,10,6.10
2006,12,13,03,11,4.50
2006,12,13,03,12,3.10
2006,12,13,03,13,2.30
2006,12,13,03,14,6.00
2006,12,13,03,15,4.80
2006,12,13,03,16,4.30
2006,12,13,03,17,1.40
2006,12,13,03,18,4.90
2006,12,13,03,19,4.40
2006,12,13,03,20,1.60
2006,12,13,03,21,2.70
2006,12,13,03,22,11.10
2006,12,13,03,23,14.00
2006,12,13,03,24,12.70
2006,12,13,03,25,8.70
2006,12,13,03,26,15.90
2006,12,13,03,27,12.60
2006,12,13,03,28,12.40
2006,12,13,03,29,13.20
2006,12,13,03,30,8.50
2006,12,13,03,31,7.90
2006,12,13,03,32,2.80
2006,12,13,03,33,15.10
2006,12,13,03,34,12.20
2006,12,13,03,35,8.90
2006,12,13,03,36,5.20
2006,12,13,03,37,2.80
2006,12,13,03,38,10.90
2006,12,13,03,39,17.80
2006,12,13,03,40,9.90
2006,12,13,03,41,9.80
2006,12,13,03,42,17.00
2006,12,13,03,43,20.00
2006,12,13,03,44,15.70
2006,12,13,03,45,10.50
2006,12,13,03,46,20.80
2006,12,13,03,47,24.10
2006,12,13,03,48,16.10
2006,12,13,03,49,6.00
2006,12,13,03,50,10.70
2006,12,13,03,51,24.10
2006,12,13,03,52,24.10
2006,12,13,03,53,9.60
2006,12,13,03,54,5.90
2006,12,13,03,55,13.90
2006,12,13,03,56,10.30
2006,12,13,03,57,13.40
2006,12,13,03,58,12.30
2006,12,13,03,59,17.90
2006,12,13,04,00,14.40
2006,12,13,04,01,23.10
2006,12,13,04,02,13.10
2006,12,13,04,03,16.90
2006,12,13,04,04,11.40
2006,12,13,04,05,10.70
2006,12,13,04,06,11.40
2006,12,13,04,07,5.20
2006,12,13,04,08,3.60
2006,12,13,04,09,4.70
2006,12,13,04,10,4.00
2006,12,13,04,11,3.70
2006,12,13,04,12,10.60
2006,12,13,04,13,14.30
2006,12,13,04,14,7.60
2006,12,13,04,15,6.40
2006,12,13,04,16,4.10
2006,12,13,04,17,3.50
2006,12,13,04,18,5.40
2006,12,13,04,19,5.80
2006,12,13,04,20,9.20
2006,12,13,04,21,5.00
2006,12,13,04,22,8.40
2006,12,13,04,23,6.90
2006,12,13,04,24,5.70
2006,12,13,04,25,6.30
2006,12,13,04,26,9.70
2006,12,13,04,27,5.10
2006,12,13,04,28,4.90
2006,12,13,04,29,8.80
2006,12,13,04,30,4.70
2006,12,13,04,31,1.80
2006,12,13,04,32,4.30
2006,12,13,04,33,2.30
2006,12,13,04,34,1.70
2006,12,13,04,35,6.90
2006,12,13,04,36,14.30
2006,12,13,04,37,7.70
2006,12,13,04,38,8.80
2006,12,13,04,39,11.00
2006,12,13,04,40,8.70
2006,12,13,04,41,15.00
2006,12,13,04,42,14.10
2006,12,13,04,43,14.60
2006,12,13,04,44,10.60
2006,12,13,04,45,13.80
2006,12,13,04,46,9.30
2006,12,13,04,47,11.20
2006,12,13,04,48,13.00
2006,12,13,04,49,12.30
2006,12,13,04,50,16.60
2006,12,13,04,51,10.40
2006,12,13,04,52,22.90
2006,12,13,04,53,15.50
2006,12,13,04,54,10.80
2006,12,13,04,55,13.00
2006,12,13,04,56,23.90
2006,12,13,04,57,20.60
2006,12,13,04,58,9.10
2006,12,13,04,59,10.50
2006,12,13,05,00,6.10
2006,12,13,05,01,5.10
2006,12,13,05,02,13.10
2006,12,13,05,03,20.70
2006,12,13,05,04,7.80
2006,12,13,05,05,7.10
2006,12,13,05,06,9.60
2006,12,13,05,07,6.40
2006,12,13,05,08,4.40
2006,12,13,05,09,18.90
2006,12,13,05,10,8.40
2006,12,13,05,11,3.10
2006,12,13,05,12,15.40
2006,12,13,05,13,19.80
2006,12,13,05,14,12.60
2006,12,13,05,15,5.90
2006,12,13,05,16,17.10
2006,12,13,05,17,8.50
2006,12,13,05,18,10.20
2006,12,13,05,19,14.80
2006,12,13,05,20,9.10
2006,12,13,05,21,11.40
2006,12,13,05,22,6.60
2006,12,13,05,23,12.40
2006,12,13,05,24,10.90
2006,12,13,05,25,13.20
2006,12,13,05,26,9.00
2006,12,13,05,27,8.00
2006,12,13,05,28,7.30
2006,12,13,05,29,13.80
2006,12,13,05,30,8.90
2006,12,13,05,31,14.20
2006,12,13,05,32,12.20
2006,12,13,05,33,13.60
2006,12,13,05,34,8.90
2006,12,13,05,35,10.50
2006,12,13,05,36,22.60
2006,12,13,05,37,18.00
2006,12,13,05,38,14.60
2006,12,13,05,39,13.00
2006,12,13,05,40,11.40
2006,12,13,05,41,17.70
2006,12,13,05,42,19.40
2006,12,13,05,43,13.20
2006,12,13,05,44,14.30
2006,12,13,05,45,23.70
2006,12,13,05,46,11.40
2006,12,13,05,47,12.00
2006,12,13,05,48,15.80
2006,12,13,05,49,19.90
2006,12,13,05,50,13.70
2006,12,13,05,51,14.20
2006,12,13,05,52,16.30
2006,12,13,05,53,10.80
2006,12,13,05,54,14.60
2006,12,13,05,55,15.50
2006,12,13,05,56,18.30
2006,12,13,05,57,15.50
2006,12,13,05,58,10.00
2006,12,13,05,59,10.90
2006,12,13,06,00,6.80
2006,12,13,06,01,11.20
2006,12,13,06,02,6.80
2006,12,13,06,03,5.60
2006,12,13,06,04,19.80
2006,12,13,06,05,15.80
2006,12,13,06,06,8.30
2006,12,13,06,07,13.20
2006,12,13,06,08,19.60
2006,12,13,06,09,11.70
2006,12,13,06,10,19.20
2006,12,13,06,11,10.40
2006,12,13,06,12,15.90
2006,12,13,06,13,15.10
2006,12,13,06,14,8.80
2006,12,13,06,15,14.50
2006,12,13,06,16,20.80
2006,12,13,06,17,8.80
2006,12,13,06,18,10.50
2006,12,13,06,19,19.40
2006,12,13,06,20,10.40
2006,12,13,06,21,8.70
2006,12,13,06,22,14.30
2006,12,13,06,23,10.70
2006,12,13,06,24,10.50
2006,12,13,06,25,23.30
2006,12,13,06,26,11.00
2006,12,13,06,27,10.70
2006,12,13,06,28,8.20
2006,12,13,06,29,10.00
2006,12,13,06,30,12.60
2006,12,13,06,31,11.00
2006,12,13,06,32,4.10
2006,12,13,06,33,10.50
2006,12,13,06,34,15.60
2006,12,13,06,35,15.10
2006,12,13,06,36,11.10
2006,12,13,06,37,17.00
2006,12,13,06,38,13.00
2006,12,13,06,39,12.40
2006,12,13,06,40,16.50
2006,12,13,06,41,25.10
2006,12,13,06,42,24.80
2006,12,13,06,43,30.00
2006,12,13,06,44,35.60
2006,12,13,06,45,26.50
2006,12,13,06,46,30.70
2006,12,13,06,47,27.70
2006,12,13,06,48,23.00
2006,12,13,06,49,15.10
2006,12,13,06,50,11.60
2006,12,13,06,51,11.90
2006,12,13,06,52,18.50
2006,12,13,06,53,14.60
2006,12,13,06,54,18.40
2006,12,13,06,55,16.70
2006,12,13,06,56,14.60
2006,12,13,06,57,15.20
2006,12,13,06,58,13.70
2006,12,13,06,59,12.80
2006,12,13,07,00,7.90
2006,12,13,07,01,10.30
2006,12,13,07,02,15.20
2006,12,13,07,03,25.50
2006,12,13,07,04,26.80
2006,12,13,07,05,13.00
2006,12,13,07,06,22.30
2006,12,13,07,07,14.10
2006,12,13,07,08,11.70
2006,12,13,07,09,18.20
2006,12,13,07,10,17.10
2006,12,13,07,11,17.40
2006,12,13,07,12,25.00
2006,12,13,07,13,15.90
2006,12,13,07,14,10.00
2006,12,13,07,15,17.40
2006,12,13,07,16,15.20
2006,12,13,07,17,20.60
2006,12,13,07,18,15.80
2006,12,13,07,19,8.70
2006,12,13,07,20,7.20
2006,12,13,07,21,18.70
2006,12,13,07,22,24.30
2006,12,13,07,23,20.80
2006,12,13,07,24,23.00
2006,12,13,07,25,18.20
2006,12,13,07,26,19.30
2006,12,13,07,27,8.70
2006,12,13,07,28,16.10
2006,12,13,07,29,21.20
2006,12,13,07,30,25.40
2006,12,13,07,31,18.80
2006,12,13,07,32,23.50
2006,12,13,07,33,26.10
2006,12,13,07,34,19.90
2006,12,13,07,35,10.90
2006,12,13,07,36,19.10
2006,12,13,07,37,29.20
2006,12,13,07,38,19.10
2006,12,13,07,39,30.80
2006,12,13,07,40,19.10
2006,12,13,07,41,9.50
2006,12,13,07,42,21.50
2006,12,13,07,43,24.60
2006,12,13,08,45,25.20
2006,12,13,08,46,29.40
2006,12,13,08,47,20.60
2006,12,13,08,48,18.00
2006,12,13,08,49,13.90
2006,12,13,08,50,22.30
2006,12,13,08,51,19.10
2006,12,13,08,52,27.10
2006,12,13,08,53,27.00
2006,12,13,08,54,14.90
2006,12,13,08,55,15.50
2006,12,13,08,56,32.70
2006,12,13,08,57,28.70
2006,12,13,08,58,28.30
2006,12,13,08,59,23.20
2006,12,13,09,00,23.60
2006,12,13,09,01,17.90
2006,12,13,09,02,20.90
2006,12,13,09,03,32.00
2006,12,13,09,04,12.20
2006,12,13,09,05,18.00
2006,12,13,09,06,32.30
2006,12,13,09,07,25.00
2006,12,13,09,08,27.00
2006,12,13,09,09,25.60
2006,12,13,09,10,16.80
2006,12,13,09,11,24.00
2006,12,13,09,12,18.20
2006,12,13,09,13,21.30
2006,12,13,09,14,14.60
2006,12,13,09,15,19.30
2006,12,13,09,16,21.50
2006,12,13,09,17,18.90
2006,12,13,09,18,19.30
2006,12,13,09,19,16.40
2006,12,13,09,20,17.60
2006,12,13,09,21,19.40
2006,12,13,09,22,16.70
2006,12,13,09,23,18.80
2006,12,13,09,24,19.30
2006,12,13,09,25,23.30
2006,12,13,09,26,18.30
2006,12,13,09,27,27.50
2006,12,13,09,28,24.00
2006,12,13,09,29,35.80
2006,12,13,09,30,21.80
2006,12,13,09,31,29.60
2006,12,13,09,32,26.40
2006,12,13,09,33,20.50
2006,12,13,09,34,16.30
2006,12,13,09,35,25.00
2006,12,13,09,36,26.50
2006,12,13,09,37,22.50
2006,12,13,09,38,25.30
2006,12,13,09,39,22.40
2006,12,13,09,40,29.70
2006,12,13,09,41,18.50
2006,12,13,09,42,22.00
2006,12,13,09,43,20.80
2006,12,13,09,44,15.30
2006,12,13,09,45,20.30
2006,12,13,09,46,23.10
2006,12,13,09,47,19.20
2006,12,13,09,48,24.90
2006,12,13,09,49,15.30
2006,12,13,09,50,27.80
2006,12,13,09,51,33.90
2006,12,13,09,52,24.10
2006,12,13,09,53,32.30
2006,12,13,09,54,21.50
2006,12,13,09,55,25.30
2006,12,13,09,56,21.60
2006,12,13,09,57,23.40
2006,12,13,09,58,23.30
2006,12,13,09,59,19.10
2006,12,13,10,00,19.50
2006,12,13,10,01,22.50
2006,12,13,10,02,30.70
2006,12,13,10,03,22.90
2006,12,13,10,04,20.70
2006,12,13,10,05,21.50
2006,12,13,10,06,31.70
2006,12,13,10,07,24.70
2006,12,13,10,08,27.70
2006,12,13,10,09,24.60
2006,12,13,10,10,28.50
2006,12,13,10,11,27.90
2006,12,13,10,12,14.50
2006,12,13,10,13,32.00
2006,12,13,10,14,26.70
2006,12,13,10,15,29.70
2006,12,13,10,16,29.90
2006,12,13,10,17,27.30
2006,12,13,10,18,26.00
2006,12,13,10,19,15.20
2006,12,13,10,20,22.40
2006,12,13,10,21,37.30
2006,12,13,10,22,20.60
2006,12,13,10,23,22.50
2006,12,13,10,24,18.80
2006,12,13,10,25,27.30
2006,12,13,10,26,20.00
2006,12,13,10,27,29.60
2006,12,13,10,28,20.60
2006,12,13,10,29,24.20
2006,12,13,10,30,28.00
2006,12,13,10,31,28.20
2006,12,13,10,32,16.70
2006,12,13,10,33,17.40
2006,12,13,10,34,24.10
2006,12,13,10,35,18.00
2006,12,13,10,36,18.10
2006,12,13,10,37,26.00
2006,12,13,10,38,25.50
2006,12,13,10,39,33.60
2006,12,13,10,40,27.80
2006,12,13,10,41,25.30
2006,12,13,10,42,14.60
2006,12,13,10,43,26.20
2006,12,13,10,47,21.70
2006,12,13,10,48,17.10
2006,12,13,10,49,17.50
2006,12,13,10,50,22.60
2006,12,13,10,51,16.60
2006,12,13,10,52,27.40
2006,12,13,10,53,33.30
2006,12,13,10,54,26.70
2006,12,13,10,55,19.10
2006,12,13,10,56,15.00
2006,12,13,10,57,24.60
2006,12,13,10,58,39.80
2006,12,13,10,59,18.90
2006,12,13,11,00,28.70
2006,12,13,11,01,22.50
2006,12,13,11,02,32.60
2006,12,13,11,03,28.50
2006,12,13,11,04,15.50
2006,12,13,11,05,22.50
2006,12,13,11,06,13.10
2006,12,13,11,07,27.60
2006,12,13,11,08,24.50
2006,12,13,11,09,23.70
2006,12,13,11,10,19.50
2006,12,13,11,11,29.20
2006,12,13,11,12,31.90
2006,12,13,11,13,23.60
2006,12,13,11,14,17.30
2006,12,13,11,15,21.70
2006,12,13,11,16,34.10
2006,12,13,11,17,24.10
2006,12,13,11,18,17.60
2006,12,13,11,19,12.10
2006,12,13,11,20,32.80
2006,12,13,11,21,15.50
2006,12,13,11,22,19.00
2006,12,13,11,23,29.10
2006,12,13,11,24,30.80
2006,12,13,11,25,34.30
2006,12,13,11,26,20.50
2006,12,13,11,27,22.90
2006,12,13,11,28,19.00
2006,12,13,11,29,23.70
2006,12,13,11,30,19.30
2006,12,13,11,31,20.00
2006,12,13,11,32,24.60
2006,12,13,11,33,16.90
2006,12,13,11,34,28.20
2006,12,13,11,38,32.00
2006,12,13,11,39,22.50
2006,12,13,11,40,16.70
2006,12,13,11,41,23.80
2006,12,13,11,42,23.30
2006,12,13,11,43,25.10
2006,12,13,11,44,22.20
2006,12,13,11,45,13.00
2006,12,13,11,46,20.10
2006,12,13,11,47,17.70
2006,12,13,11,48,14.20
2006,12,13,11,49,20.80
2006,12,13,11,50,25.70
2006,12,13,11,51,14.60
2006,12,13,11,52,17.10
2006,12,13,11,53,16.30
2006,12,13,11,54,20.30
2006,12,13,11,55,12.50
2006,12,13,11,56,17.20
2006,12,13,11,57,21.20
2006,12,13,11,58,15.00
2006,12,13,11,59,25.30
2006,12,13,12,00,22.40
2006,12,13,12,01,22.50
2006,12,13,12,02,20.00
2006,12,13,12,03,29.80
2006,12,13,12,04,32.00
2006,12,13,12,05,20.80
2006,12,13,12,06,27.10
2006,12,13,12,07,18.60
2006,12,13,12,08,22.70
2006,12,13,12,09,33.00
2006,12,13,12,10,17.80
2006,12,13,12,11,23.60
2006,12,13,12,12,11.50
2006,12,13,12,13,27.90
2006,12,13,12,14,19.00
2006,12,13,12,15,12.20
2006,12,13,12,16,31.70
2006,12,13,12,17,21.20
2006,12,13,12,18,26.60
2006,12,13,12,19,29.40
2006,12,13,12,20,27.80
2006,12,13,12,21,27.00
2006,12,13,12,22,23.90
2006,12,13,12,23,21.60
2006,12,13,12,24,14.30
2006,12,13,12,25,36.30
2006,12,13,12,26,34.60
2006,12,13,12,27,22.80
2006,12,13,12,28,24.60
2006,12,13,12,32,20.90
2006,12,13,12,33,25.60
2006,12,13,12,34,17.90
2006,12,13,12,35,17.70
2006,12,13,12,36,29.50
2006,12,13,12,37,21.80
2006,12,13,12,38,21.00
2006,12,13,12,39,20.20
2006,12,13,12,40,26.50
2006,12,13,12,41,19.20
2006,12,13,12,42,19.60
2006,12,13,12,43,18.10
2006,12,13,12,44,25.10
2006,12,13,12,45,9.60
2006,12,13,12,46,23.90
2006,12,13,12,47,26.50
2006,12,13,12,48,18.50
2006,12,13,12,49,14.50
2006,12,13,12,50,26.40
2006,12,13,12,51,20.80
2006,12,13,12,52,25.70
2006,12,13,12,53,22.30
2006,12,13,12,54,33.00
2006,12,13,12,55,20.60
2006,12,13,12,56,25.70
2006,12,13,12,57,36.10
2006,12,13,12,58,22.80
2006,12,13,12,59,19.40
2006,12,13,13,00,28.40
2006,12,13,13,01,30.40
2006,12,13,13,02,16.30
2006,12,13,13,03,17.40
2006,12,13,13,04,26.90
2006,12,13,13,05,17.60
2006,12,13,13,06,35.10
2006,12,13,13,07,13.60
2006,12,13,13,08,17.20
2006,12,13,13,09,10.40
2006,12,13,13,10,20.30
2006,12,13,13,11,16.70
2006,12,13,13,12,13.90
2006,12,13,13,13,25.30
2006,12,13,13,14,29.40
2006,12,13,13,15,20.40
2006,12,13,13,16,15.50
2006,12,13,13,17,13.00
2006,12,13,13,18,27.20
2006,12,13,13,19,16.40
2006,12,13,13,20,18.60
2006,12,13,13,21,17.70
2006,12,13,13,22,22.20
2006,12,13,13,23,25.50
2006,12,13,13,24,9.30
2006,12,13,13,25,14.30
2006,12,13,13,26,12.90
2006,12,13,13,27,7.60
2006,12,13,13,28,14.40
2006,12,13,13,29,18.90
2006,12,13,13,30,9.70
2006,12,13,13,31,6.80
2006,12,13,13,32,8.80
2006,12,13,13,33,10.50
2006,12,13,13,34,9.90
2006,12,13,13,35,17.70
2006,12,13,13,36,17.90
2006,12,13,13,37,26.70
2006,12,13,13,38,30.00
2006,12,13,13,39,20.20
2006,12,13,13,40,31.20
2006,12,13,13,41,19.20
2006,12,13,13,42,18.10
2006,12,13,13,43,18.50
2006,12,13,13,44,8.80
2006,12,13,13,45,10.90
2006,12,13,13,46,15.30
2006,12,13,13,47,18.30
2006,12,13,13,48,15.00
2006,12,13,13,49,23.00
2006,12,13,13,50,16.60
2006,12,13,13,51,16.40
2006,12,13,13,52,17.80
2006,12,13,13,53,27.50
2006,12,13,13,54,16.50
2006,12,13,13,55,15.50
2006,12,13,13,56,18.00
2006,12,13,13,57,24.90
2006,12,13,13,58,15.30
2006,12,13,13,59,13.60
2006,12,13,14,00,18.90
2006,12,13,14,01,25.70
2006,12,13,14,02,17.40
2006,12,13,14,03,13.80
2006,12,13,14,04,8.70
2006,12,13,14,05,20.20
2006,12,13,14,06,23.30
2006,12,13,14,07,28.80
2006,12,13,14,08,22.40
2006,12,13,14,09,17.90
2006,12,13,14,10,21.00
2006,12,13,14,11,24.10
2006,12,13,14,12,40.70
2006,12,13,14,13,26.70
2006,12,13,14,14,21.80
2006,12,13,14,15,10.90
2006,12,13,14,16,13.60
2006,12,13,14,17,13.30
2006,12,13,14,18,21.10
2006,12,13,14,19,26.30
2006,12,13,14,20,19.80
2006,12,13,14,21,15.70
2006,12,13,14,22,19.10
2006,12,13,14,23,19.00
2006,12,13,14,24,13.60
2006,12,13,14,25,17.10
2006,12,13,14,26,19.40
2006,12,13,14,27,29.00
2006,12,13,14,28,27.00
2006,12,13,14,29,18.70
2006,12,13,14,30,6.60
2006,12,13,14,31,8.30
2006,12,13,14,32,12.70
2006,12,13,14,33,21.30
2006,12,13,14,34,13.10
2006,12,13,14,35,16.80
2006,12,13,14,36,24.30
2006,12,13,14,37,21.00
2006,12,13,14,38,23.20
2006,12,13,14,39,21.70
2006,12,13,14,40,17.00
2006,12,13,14,41,12.90
2006,12,13,14,42,22.20
2006,12,13,14,43,19.50
2006,12,13,14,44,11.30
2006,12,13,14,45,14.20
2006,12,13,14,46,7.90
2006,12,13,14,47,15.90
2006,12,13,14,48,17.30
2006,12,13,14,49,14.70
2006,12,13,14,50,21.00
2006,12,13,14,51,10.60
2006,12,13,14,52,12.50
2006,12,13,14,53,24.10
2006,12,13,14,54,11.40
2006,12,13,14,55,9.30
2006,12,13,14,56,4.90
2006,12,13,14,57,7.00
2006,12,13,14,58,11.30
2006,12,13,14,59,4.40
2006,12,13,15,00,8.90
2006,12,13,15,01,7.60
2006,12,13,15,02,13.90
2006,12,13,15,03,5.80
2006,12,13,15,04,13.50
2006,12,13,15,05,10.90
2006,12,13,15,06,12.00
2006,12,13,15,07,8.70
2006,12,13,15,08,8.10
2006,12,13,15,09,16.20
2006,12,13,15,10,6.70
2006,12,13,15,11,1.90
2006,12,13,15,12,5.10
2006,12,13,15,13,8.60
2006,12,13,15,14,11.50
2006,12,13,15,15,9.60
2006,12,13,15,16,6.90
2006,12,13,15,17,9.40
2006,12,13,15,18,11.60
2006,12,13,15,19,18.70
2006,12,13,15,20,12.50
2006,12,13,15,21,24.10
2006,12,13,15,22,14.60
2006,12,13,15,23,17.10
2006,12,13,15,24,9.40
2006,12,13,15,25,9.00
2006,12,13,15,26,3.50
2006,12,13,15,27,7.00
2006,12,13,15,28,9.00
2006,12,13,15,29,5.90
2006,12,13,15,30,8.40
2006,12,13,15,31,8.60
2006,12,13,15,32,12.90
2006,12,13,15,33,14.70
2006,12,13,15,34,13.10
2006,12,13,15,35,15.60
2006,12,13,15,36,14.50
2006,12,13,15,37,10.50
2006,12,13,15,38,11.80
2006,12,13,15,39,6.20
2006,12,13,15,40,7.00
2006,12,13,15,41,6.50
2006,12,13,15,42,6.10
2006,12,13,15,43,4.10
2006,12,13,15,44,8.90
2006,12,13,15,45,9.60
2006,12,13,15,46,10.30
2006,12,13,15,47,14.00
2006,12,13,15,48,13.40
2006,12,13,15,49,5.30
2006,12,13,15,50,10.00
2006,12,13,15,51,4.80
2006,12,13,15,52,8.90
2006,12,13,15,53,8.40
2006,12,13,15,54,10.00
2006,12,13,15,55,8.40
2006,12,13,15,56,7.60
2006,12,13,15,57,8.50
2006,12,13,15,58,5.90
2006,12,13,15,59,15.00
2006,12,13,16,00,8.80
2006,12,13,16,01,9.80
2006,12,13,16,02,22.10
2006,12,13,16,03,20.50
2006,12,13,16,04,17.80
2006,12,13,16,05,3.70
2006,12,13,16,06,3.90
2006,12,13,16,07,5.40
2006,12,13,16,08,5.10
2006,12,13,16,09,6.80
2006,12,13,16,10,2.50
2006,12,13,16,11,6.40
2006,12,13,16,12,1.60
2006,12,13,16,13,4.20
2006,12,13,16,14,2.30
2006,12,13,16,15,4.60
2006,12,13,16,16,5.40
2006,12,13,16,17,3.70
2006,12,13,16,18,4.50
2006,12,13,16,19,8.70
2006,12,13,16,20,12.40
2006,12,13,16,21,19.50
2006,12,13,16,22,7.70
2006,12,13,16,23,6.80
2006,12,13,16,24,5.00
2006,12,13,16,25,5.40
2006,12,13,16,26,2.40
2006,12,13,16,27,2.00
2006,12,13,16,28,5.10
2006,12,13,16,29,6.90
2006,12,13,16,30,5.50
2006,12,13,16,31,7.90
2006,12,13,16,32,3.10
2006,12,13,16,33,7.50
2006,12,13,16,34,3.50
2006,12,13,16,35,1.20
2006,12,13,16,36,0.30
2006,12,13,16,37,2.30
2006,12,13,16,38,4.70
2006,12,13,16,39,4.80
2006,12,13,16,40,1.10
2006,12,13,16,41,0.90
2006,12,13,16,42,0.20
2006,12,13,16,43,1.30
2006,12,13,16,44,6.50
2006,12,13,16,45,4.20
2006,12,13,16,46,3.90
2006,12,13,16,47,4.30
2006,12,13,16,48,4.00
2006,12,13,16,49,5.20
2006,12,13,16,50,10.30
2006,12,13,16,51,6.70
2006,12,13,16,52,10.30
2006,12,13,16,53,5.70
2006,12,13,16,54,21.30
2006,12,13,16,55,13.10
2006,12,13,16,56,16.00
2006,12,13,16,57,11.70
2006,12,13,16,58,6.60
2006,12,13,16,59,17.70
2006,12,13,17,00,18.40
2006,12,13,17,01,19.30
2006,12,13,17,02,22.70
2006,12,13,17,03,14.70
2006,12,13,17,04,16.60
2006,12,13,17,05,16.90
2006,12,13,17,06,12.60
2006,12,13,17,07,12.40
2006,12,13,17,08,12.60
2006,12,13,17,09,10.00
2006,12,13,17,10,5.80
2006,12,13,17,11,6.30
2006,12,13,17,12,8.60
2006,12,13,17,13,5.60
2006,12,13,17,14,6.00
2006,12,13,17,15,2.80
2006,12,13,17,16,2.20
2006,12,13,17,17,2.30
2006,12,13,17,18,0.60
2006,12,13,17,19,2.40
2006,12,13,17,20,0.50
2006,12,13,17,21,0.10
2006,12,13,17,22,0.30
2006,12,13,17,23,0.20
2006,12,13,17,24,2.80
2006,12,13,17,25,3.50
2006,12,13,17,26,3.50
2006,12,13,17,27,6.70
2006,12,13,17,28,6.60
2006,12,13,17,29,5.20
2006,12,13,17,30,5.90
2006,12,13,17,31,4.30
2006,12,13,17,32,3.20
2006,12,13,17,33,1.90
2006,12,13,17,34,3.40
2006,12,13,17,35,11.10
2006,12,13,17,36,7.00
2006,12,13,17,37,5.60
2006,12,13,17,38,3.70
2006,12,13,17,39,9.00
2006,12,13,17,40,13.20
2006,12,13,17,41,4.60
2006,12,13,17,42,10.00
2006,12,13,17,43,5.80
2006,12,13,17,44,8.70
2006,12,13,17,45,7.40
2006,12,13,17,46,7.60
2006,12,13,17,47,4.30
2006,12,13,17,48,7.20
2006,12,13,17,49,7.60
2006,12,13,17,50,4.50
2006,12,13,17,51,3.50
2006,12,13,17,52,6.80
2006,12,13,17,53,2.50
2006,12,13,17,54,1.00
2006,12,13,17,55,0.00
2006,12,13,17,56,2.30
2006,12,13,17,57,3.30
2006,12,13,17,58,2.70
2006,12,13,17,59,2.10
2006,12,13,18,00,2.90
2006,12,13,18,01,3.60
2006,12,13,18,02,2.50
2006,12,13,18,03,0.70
2006,12,13,18,04,0.10
2006,12,13,18,05,0.10
2006,12,13,18,06,0.40
2006,12,13,18,07,2.20
2006,12,13,18,08,3.50
2006,12,13,18,09,2.40
2006,12,13,18,10,2.50
2006,12,13,18,11,0.80
2006,12,13,18,12,1.80
2006,12,13,18,13,0.60
2006,12,13,18,14,0.00
2006,12,13,18,15,0.00
2006,12,13,18,16,0.40
2006,12,13,18,17,0.80
2006,12,13,18,18,4.50
2006,12,13,18,19,0.80
2006,12,13,18,20,1.00
2006,12,13,18,21,2.60
2006,12,13,18,22,3.60
2006,12,13,18,23,6.10
2006,12,13,18,24,1.10
2006,12,13,18,25,0.00
2006,12,13,18,26,2.10
2006,12,13,18,27,3.70
2006,12,13,18,28,1.90
2006,12,13,18,29,1.20
2006,12,13,18,30,2.20
2006,12,13,18,31,0.90
2006,12,13,18,32,2.60
2006,12,13,18,33,0.40
2006,12,13,18,34,1.20
2006,12,13,18,35,0.70
2006,12,13,18,36,0.20
2006,12,13,18,37,1.20
2006,12,13,18,38,3.10
2006,12,13,18,39,1.60
2006,12,13,18,40,1.30
2006,12,13,18,41,0.80
2006,12,13,18,42,0.00
2006,12,13,18,43,3.50
2006,12,13,18,44,9.00
2006,12,13,18,45,5.20
2006,12,13,18,46,7.70
2006,12,13,18,47,6.70
2006,12,13,18,48,7.70
2006,12,13,18,49,6.10
2006,12,13,18,50,6.20
2006,12,13,18,51,6.80
2006,12,13,18,52,10.80
2006,12,13,18,53,9.70
2006,12,13,18,54,7.70
2006,12,13,18,55,7.70
2006,12,13,18,56,7.00
2006,12,13,18,57,3.20
2006,12,13,18,58,0.30
2006,12,13,18,59,1.00
2006,12,13,19,00,2.30
2006,12,13,19,01,2.90
2006,12,13,19,02,5.80
2006,12,13,19,03,1.70
2006,12,13,19,04,0.30
2006,12,13,19,05,1.10
2006,12,13,19,06,2.40
2006,12,13,19,07,0.60
2006,12,13,19,08,0.70
2006,12,13,19,09,0.20
2006,12,13,19,10,1.20
2006,12,13,19,11,6.00
2006,12,13,19,12,6.80
2006,12,13,19,13,2.30
2006,12,13,19,14,0.20
2006,12,13,19,15,0.10
2006,12,13,19,16,0.00
2006,12,13,19,17,0.20
2006,12,13,19,18,0.40
2006,12,13,19,19,0.00
2006,12,13,19,20,0.10
2006,12,13,19,21,0.00
2006,12,13,19,22,0.60
2006,12,13,19,23,2.90
2006,12,13,19,24,3.00
2006,12,13,19,25,4.10
2006,12,13,19,26,2.60
2006,12,13,19,27,4.10
2006,12,13,19,28,1.00
2006,12,13,19,29,2.40
2006,12,13,19,30,1.40
2006,12,13,19,31,2.20
2006,12,13,19,32,3.80
2006,12,13,19,33,4.40
2006,12,13,19,34,6.60
2006,12,13,19,35,15.50
2006,12,13,19,36,8.10
2006,12,13,19,37,3.70
2006,12,13,19,38,2.20
2006,12,13,19,39,5.30
2006,12,13,19,40,3.00
2006,12,13,19,41,0.30
2006,12,13,19,42,0.20
2006,12,13,19,43,0.10
2006,12,13,19,44,0.00
2006,12,13,19,45,0.00
2006,12,13,19,46,0.00
2006,12,13,19,47,0.00
2006,12,13,19,48,6.80
2006,12,13,19,49,3.60
2006,12,13,19,50,3.50
2006,12,13,19,51,1.40
2006,12,13,19,52,2.20
2006,12,13,19,53,1.90
2006,12,13,19,54,1.90
2006,12,13,19,55,5.20
2006,12,13,19,56,1.30
2006,12,13,19,57,3.00
2006,12,13,19,58,4.20
2006,12,13,19,59,3.60
2006,12,13,20,00,8.70
2006,12,13,20,01,9.10
2006,12,13,20,02,5.10
2006,12,13,20,03,5.10
2006,12,13,20,04,3.20
2006,12,13,20,05,8.60
2006,12,13,20,06,9.80
2006,12,13,20,07,9.00
2006,12,13,20,08,5.80
2006,12,13,20,09,8.60
2006,12,13,20,10,9.30
2006,12,13,20,11,10.30
2006,12,13,20,12,10.20
2006,12,13,20,13,10.40